Location: *
(50.2903°S, 172.5375°W)
Time: 19:43:13
(UTC+00:00)

Cosmos 2278 Rocket - Pass Details

Date: 17 November 2019
Orbit: 841 x 846 km, 71.0° (Epoch: 07 December)

Event Time Altitude Azimuth Distance (km) Brightness Sun altitude
Exits shadow 14:43:54 - 272° (W) 3,397 4.9 -6.9°
Reaches altitude 10° 14:47:12 10° 252° (WSW) 2,488 4.3 -6.5°
Maximum altitude 14:50:53 17° 212° (SSW) 2,029 4.3 -6.0°
Drops below altitude 10° 14:54:35 10° 171° (S) 2,499 5.4 -5.6°
Sets 14:57:59 0° 151° (SSE) 3,438 6.8 -5.1°
